| time (UTC) | temp F | wind direction | speed MPH | gust MPH | rain 1hr in | rain 24hr in | rain mn in | humidity % | barometer mb |
| 20260506191605 | 66 | 171 | 3.0 | 0.0 | 0.00 | 0.00 | 0.00 | 36 | 1006.3 |
| 20260506190048 | 66 | 227 | 6.0 | 0.0 | 0.00 | 0.00 | 0.00 | 37 | 1006.5 |
| 20260506184546 | 67 | 207 | 4.0 | 0.0 | 0.00 | 0.00 | 0.00 | 42 | 1006.5 |
| 20260506183039 | 69 | 194 | 4.0 | 0.0 | 0.00 | 0.00 | 0.00 | 55 | 1006.5 |
| 20260506181535 | 70 | 217 | 3.0 | 0.0 | 0.00 | 0.00 | 0.00 | 61 | 1006.8 |
| 20260506180030 | 70 | 148 | 1.0 | 0.0 | 0.00 | 0.00 | 0.00 | 60 | 1006.6 |
| 20260506174526 | 70 | 217 | 1.0 | 0.0 | 0.00 | 0.00 | 0.00 | 60 | 1006.8 |
| 20260506173022 | 70 | 162 | 2.0 | 0.0 | 0.00 | 0.00 | 0.00 | 58 | 1006.9 |
| 20260506171521 | 71 | 184 | 1.0 | 0.0 | 0.00 | 0.00 | 0.00 | 59 | 1007.1 |
| 20260506170012 | 71 | 195 | 1.0 | 0.0 | 0.00 | 0.00 | 0.00 | 63 | 1007.3 |
| 20260506164509 | 72 | 114 | 1.0 | 0.0 | 0.00 | 0.00 | 0.00 | 63 | 1007.8 |
| 20260506163008 | 72 | 221 | 1.0 | 0.0 | 0.00 | 0.00 | 0.00 | 62 | 1008.3 |
| 20260506161600 | 73 | 167 | 3.0 | 0.0 | 0.00 | 0.00 | 0.00 | 61 | 1008.5 |
| 20260506160056 | 73 | 225 | 3.0 | 0.0 | 0.00 | 0.00 | 0.00 | 59 | 1008.3 |
| 20260506154552 | 74 | 165 | 3.0 | 0.0 | 0.00 | 0.00 | 0.00 | 56 | 1008.3 |
| 20260506153046 | 74 | 204 | 2.0 | 0.0 | 0.00 | 0.00 | 0.00 | 58 | 1008.2 |
| 20260506151546 | 72 | 222 | 2.0 | 0.0 | 0.00 | 0.00 | 0.00 | 60 | 1008.3 |
| 20260506150038 | 73 | 235 | 5.0 | 0.0 | 0.00 | 0.00 | 0.00 | 57 | 1008.6 |
| 20260506144549 | 74 | 129 | 4.0 | 0.0 | 0.00 | 0.00 | 0.00 | 57 | 1008.5 |
| 20260506143031 | 73 | 248 | 3.0 | 0.0 | 0.00 | 0.00 | 0.00 | 58 | 1008.5 |
| 20260506141532 | 72 | 220 | 5.0 | 0.0 | 0.00 | 0.00 | 0.00 | 59 | 1008.4 |
| 20260506140022 | 73 | 180 | 6.0 | 0.0 | 0.00 | 0.00 | 0.00 | 60 | 1008.4 |
| 20260506134516 | 73 | 198 | 3.0 | 0.0 | 0.00 | 0.00 | 0.00 | 61 | 1008.6 |
| 20260506133016 | 72 | 148 | 5.0 | 0.0 | 0.00 | 0.00 | 0.00 | 62 | 1008.8 |
| 20260506131508 | 72 | 209 | 4.0 | 0.0 | 0.00 | 0.00 | 0.00 | 62 | 1009.2 |
| 20260506130003 | 71 | 221 | 3.0 | 0.0 | 0.00 | 0.00 | 0.00 | 61 | 1009.0 |
| 20260506124559 | 68 | 126 | 3.0 | 0.0 | 0.00 | 0.00 | 0.00 | 57 | 1009.1 |
| 20260506123055 | 66 | 157 | 2.0 | 0.0 | 0.00 | 0.00 | 0.00 | 54 | 1009.1 |
| 20260506121550 | 66 | 237 | 2.0 | 0.0 | 0.00 | 0.00 | 0.00 | 45 | 1009.2 |
| 20260506120046 | 65 | 131 | 2.0 | 0.0 | 0.00 | 0.00 | 0.00 | 43 | 1009.1 |
| 20260506114541 | 64 | 215 | 2.0 | 0.0 | 0.00 | 0.00 | 0.00 | 29 | 1009.2 |
| 20260506113038 | 61 | 201 | 2.0 | 0.0 | 0.00 | 0.00 | 0.00 | 5 | 1009.4 |
| 20260506111533 | 60 | 140 | 2.0 | 0.0 | 0.00 | 0.00 | 0.00 | 100 | 1009.4 |
| 20260506110029 | 58 | 149 | 1.0 | 0.0 | 0.00 | 0.00 | 0.00 | 100 | 1009.4 |
| 20260506104527 | 58 | 189 | 2.0 | 0.0 | 0.00 | 0.00 | 0.00 | 100 | 1009.2 |
| 20260506103023 | 57 | 188 | 2.0 | 0.0 | 0.00 | 0.00 | 0.00 | 100 | 1009.3 |
| 20260506101516 | 57 | 175 | 0.0 | 0.0 | 0.00 | 0.00 | 0.00 | 100 | 1009.1 |
| 20260506100012 | 58 | 123 | 1.0 | 0.0 | 0.00 | 0.00 | 0.00 | 100 | 1009.0 |
| 20260506094506 | 58 | 187 | 1.0 | 0.0 | 0.00 | 0.00 | 0.00 | 100 | 1009.1 |
| 20260506093002 | 58 | 187 | 1.0 | 0.0 | 0.00 | 0.00 | 0.00 | 100 | 1009.1 |
| 20260506091559 | 58 | 248 | 2.0 | 0.0 | 0.00 | 0.00 | 0.00 | 100 | 1009.1 |
| 20260506090053 | 58 | 144 | 2.0 | 0.0 | 0.00 | 0.00 | 0.00 | 100 | 1009.3 |
| 20260506084555 | 59 | 231 | 1.0 | 0.0 | 0.00 | 0.00 | 0.00 | 100 | 1009.3 |
| 20260506083051 | 59 | 196 | 1.0 | 0.0 | 0.00 | 0.00 | 0.00 | 100 | 1009.4 |
| 20260506081541 | 60 | 181 | 1.0 | 0.0 | 0.00 | 0.00 | 0.00 | 100 | 1009.6 |
| 20260506073031 | 61 | 213 | 2.0 | 0.0 | 0.00 | 0.00 | 0.00 | 15 | 1009.6 |
| 20260506071529 | 62 | 199 | 1.0 | 0.0 | 0.00 | 0.00 | 0.00 | 21 | 1009.6 |
| 20260506061526 | 63 | 211 | 1.0 | 0.0 | 0.00 | 0.00 | 0.00 | 31 | 1009.5 |
| 20260506044511 | 63 | 173 | 1.0 | 0.0 | 0.00 | 0.00 | 0.00 | 48 | 1010.1 |
| 20260506043008 | 64 | 169 | 2.0 | 0.0 | 0.00 | 0.00 | 0.00 | 51 | 1010.1 |
| 20260506041505 | 64 | 184 | 1.0 | 0.0 | 0.00 | 0.00 | 0.00 | 55 | 1010.0 |
| 20260506040006 | 65 | 178 | 1.0 | 0.0 | 0.00 | 0.00 | 0.00 | 57 | 1009.9 |
| 20260506034604 | 65 | 158 | 2.0 | 0.0 | 0.00 | 0.00 | 0.00 | 58 | 1010.0 |
| 20260506033109 | 65 | 171 | 2.0 | 0.0 | 0.00 | 0.00 | 0.00 | 59 | 1010.1 |
| 20260506031552 | 65 | 204 | 1.0 | 0.0 | 0.00 | 0.00 | 0.00 | 60 | 1010.0 |
| 20260506030057 | 65 | 170 | 2.0 | 0.0 | 0.00 | 0.00 | 0.00 | 61 | 1010.1 |
| 20260506024544 | 66 | 197 | 1.0 | 0.0 | 0.00 | 0.00 | 0.00 | 61 | 1010.1 |
| 20260506023037 | 66 | 206 | 3.0 | 0.0 | 0.00 | 0.00 | 0.00 | 62 | 1010.2 |
| 20260506021539 | 66 | 204 | 2.0 | 0.0 | 0.00 | 0.00 | 0.00 | 62 | 1010.3 |
| 20260506020028 | 66 | 142 | 3.0 | 0.0 | 0.00 | 0.00 | 0.00 | 63 | 1010.3 |
| 20260506014524 | 67 | 143 | 2.0 | 0.0 | 0.00 | 0.00 | 0.00 | 64 | 1010.1 |
| 20260506013019 | 67 | 202 | 2.0 | 0.0 | 0.00 | 0.00 | 0.00 | 64 | 1010.1 |
| 20260506011535 | 67 | 189 | 2.0 | 0.0 | 0.00 | 0.00 | 0.00 | 63 | 1010.0 |
| 20260506010011 | 68 | 171 | 3.0 | 0.0 | 0.00 | 0.00 | 0.00 | 63 | 1009.6 |
| 20260506004520 | 68 | 200 | 3.0 | 0.0 | 0.00 | 0.00 | 0.00 | 62 | 1009.6 |
| 20260506003002 | 68 | 225 | 2.0 | 0.0 | 0.00 | 0.00 | 0.00 | 61 | 1009.5 |
| 20260506001601 | 69 | 188 | 1.0 | 0.0 | 0.00 | 0.00 | 0.00 | 61 | 1009.4 |
| 20260506000059 | 70 | 185 | 3.0 | 0.0 | 0.00 | 0.00 | 0.00 | 59 | 1009.2 |
| 20260505234549 | 70 | 170 | 4.0 | 0.0 | 0.00 | 0.00 | 0.00 | 58 | 1009.1 |
| 20260505233045 | 71 | 223 | 4.0 | 0.0 | 0.00 | 0.00 | 0.00 | 56 | 1009.0 |
| 20260505231543 | 73 | 136 | 3.0 | 0.0 | 0.00 | 0.00 | 0.00 | 54 | 1008.6 |
| 20260505230036 | 73 | 148 | 2.0 | 0.0 | 0.00 | 0.00 | 0.00 | 53 | 1008.5 |
| 20260505224532 | 74 | 173 | 3.0 | 0.0 | 0.00 | 0.00 | 0.00 | 52 | 1008.4 |
| 20260505223027 | 75 | 220 | 3.0 | 0.0 | 0.00 | 0.00 | 0.00 | 51 | 1008.3 |
| 20260505221523 | 76 | 157 | 3.0 | 0.0 | 0.00 | 0.00 | 0.00 | 48 | 1008.1 |
| 20260505220041 | 78 | 146 | 3.0 | 0.0 | 0.00 | 0.00 | 0.00 | 47 | 1007.9 |
| 20260505214525 | 78 | 194 | 3.0 | 0.0 | 0.00 | 0.00 | 0.00 | 47 | 1007.7 |
| 20260505213018 | 79 | 134 | 3.0 | 0.0 | 0.00 | 0.00 | 0.00 | 45 | 1007.7 |
| 20260505211506 | 80 | 109 | 4.0 | 0.0 | 0.00 | 0.00 | 0.00 | 45 | 1007.5 |
| 20260505210001 | 81 | 177 | 3.0 | 0.0 | 0.00 | 0.00 | 0.00 | 44 | 1007.3 |
| 20260505204606 | 82 | 186 | 3.0 | 0.0 | 0.00 | 0.00 | 0.00 | 45 | 1007.2 |
| 20260505203056 | 83 | 189 | 5.0 | 0.0 | 0.00 | 0.00 | 0.00 | 43 | 1007.2 |
| 20260505201613 | 84 | 182 | 3.0 | 0.0 | 0.00 | 0.00 | 0.00 | 42 | 1007.3 |
| 20260505200043 | 85 | 174 | 3.0 | 0.0 | 0.00 | 0.00 | 0.00 | 42 | 1007.4 |
| 20260505194523 | 86 | 200 | 3.0 | 0.0 | 0.00 | 0.00 | 0.00 | 41 | 1007.4 |
| 20260505193033 | 87 | 153 | 3.0 | 0.0 | 0.00 | 0.00 | 0.00 | 39 | 1007.4 |